Weather in Glukhariny

Russia / Magadan District     65°00′42″N   153°05′16″E
temp.,
°C
wind,
m/s
gust,
m/s
humid.,
%
clouds,
%
prec.,
mm/h
press.,
hPa
HPBL,
m
15 may, sat
sat1523:00−4w229892 1.6 101722
02:00−8wnw119976 0.1 101810
05:00−9w0010096 0.1 101910
08:00−4ssw118912 0.0 1019177
11:00−2sse229426 0.0 1019311
14:00−1sse239521 0.0 1018399
17:000se23885 0.0 1017352
20:00−2ese22885 0.0 101610
16 may, sun
sun1623:00−6e22905 0.0 101710
02:00−7e22955 0.0 101610
05:00−7e229636 0.0 101514
08:00−2ese22875 0.0 1014160
11:000ese23935 0.0 1013256
14:00+1ese23946 0.0 1011275
17:00+2se23905 0.0 1010212
20:00+1ese33835 0.0 100927
17 may, mon
mon1723:00−2ese32885 0.0 100913
02:00−3e22925 0.0 100713
05:00−3e229344 0.0 100619
08:000ese23875 0.0 1005165
11:00+2se247816 0.0 1004423
14:00+5se456378 0.0 1003612
17:00+7sse465383 0.0 1002933
20:00+4se4564100 0.0 100262
18 may, tue
tue1823:00+2ese3273100 0.0 100211
02:00+1ese227675 0.0 100211
05:00+1e22755 0.0 100215
08:00+3ese246524 0.0 1002302
11:00+5se465655 0.0 10011149
14:00+6sse565899 0.0 10011247
17:00+7sse675699 0.1 10001201
20:00+5se4668100 0.1 1001242
19 may, wed
wed1923:00+3ese2279100 0.1 100115
02:00+2e3288100 0.0 100129
05:00+1e229587 0.0 100148
08:00+3ese347770 0.0 1000540
11:00+5se445989 0.0 10001250
14:00+7ese445099 0.1 9991362
17:00+8se444882 0.1 9991421
20:00+7se5554100 0.1 999915